TimeMDT,TemperatureF,Dew PointF,Humidity,Sea Level PressureIn,VisibilityMPH,Wind Direction,Wind SpeedMPH,Gust SpeedMPH,PrecipitationIn,Events,Conditions,WindDirDegrees,DateUTC
12:53 AM,34.0,12.9,42,29.70,10.0,NNE,4.6,-,N/A,,Clear,20,2011-11-04 06:53:00
1:53 AM,37.4,12.2,36,29.64,10.0,East,3.5,-,N/A,,Clear,80,2011-11-04 07:53:00
2:53 AM,30.9,14.0,50,29.67,10.0,West,3.5,-,N/A,,Clear,280,2011-11-04 08:53:00
3:53 AM,30.0,15.1,54,29.68,10.0,WNW,5.8,-,N/A,,Clear,300,2011-11-04 09:53:00
4:53 AM,30.9,16.0,54,29.68,10.0,NW,8.1,-,N/A,,Clear,310,2011-11-04 10:53:00
5:53 AM,30.0,17.1,59,29.70,10.0,West,5.8,-,N/A,,Clear,280,2011-11-04 11:53:00
6:53 AM,30.0,19.0,64,29.72,10.0,West,4.6,-,N/A,,Clear,280,2011-11-04 12:53:00
7:53 AM,28.9,19.9,69,29.72,10.0,NW,8.1,-,N/A,,Clear,310,2011-11-04 13:53:00
8:53 AM,30.0,21.0,69,29.76,10.0,NW,11.5,-,N/A,,Clear,320,2011-11-04 14:53:00
9:53 AM,30.9,23.0,72,29.76,10.0,NW,11.5,-,N/A,,Clear,320,2011-11-04 15:53:00
10:53 AM,32.0,23.0,69,29.75,10.0,NW,11.5,-,N/A,,Clear,320,2011-11-04 16:53:00
11:53 AM,34.0,23.0,64,29.74,10.0,NW,10.4,-,N/A,,Partly Cloudy,320,2011-11-04 17:53:00
12:53 PM,35.1,23.0,61,29.75,10.0,NW,12.7,-,N/A,,Overcast,320,2011-11-04 18:53:00
1:19 PM,33.8,24.8,70,29.66,10.0,NNW,11.5,-,N/A,,Mostly Cloudy,330,2011-11-04 19:19:00
1:53 PM,33.1,23.0,66,29.74,10.0,NNW,11.5,-,N/A,,Overcast,330,2011-11-04 19:53:00
2:53 PM,34.0,23.0,64,29.75,10.0,WNW,6.9,-,N/A,,Overcast,300,2011-11-04 20:53:00
3:53 PM,33.1,21.9,64,29.75,10.0,NNW,12.7,-,N/A,,Overcast,330,2011-11-04 21:53:00
4:53 PM,30.0,21.0,69,29.77,10.0,NW,11.5,-,N/A,,Mostly Cloudy,320,2011-11-04 22:53:00
5:00 PM,30.2,21.2,69,29.65,10.0,NNW,11.5,-,N/A,,Scattered Clouds,330,2011-11-04 23:00:00
5:53 PM,26.6,19.4,74,29.67,10.0,NNW,8.1,-,N/A,,Mostly Cloudy,330,2011-11-04 23:53:00
6:07 PM,26.6,19.4,74,29.67,10.0,NW,8.1,-,N/A,,Overcast,320,2011-11-05 00:07:00
6:46 PM,24.8,19.4,80,29.67,10.0,NNW,8.1,-,N/A,,Scattered Clouds,330,2011-11-05 00:46:00
6:53 PM,24.1,19.0,81,29.81,10.0,NNW,6.9,-,N/A,,Partly Cloudy,330,2011-11-05 00:53:00
7:53 PM,25.0,19.9,81,29.83,10.0,NNW,4.6,-,N/A,,Mostly Cloudy,330,2011-11-05 01:53:00
8:53 PM,24.1,19.9,84,29.82,10.0,NNW,5.8,-,N/A,,Mostly Cloudy,330,2011-11-05 02:53:00
9:25 PM,24.8,19.4,80,29.69,10.0,Calm,Calm,-,N/A,,Overcast,0,2011-11-05 03:25:00
9:32 PM,24.8,19.4,80,29.69,10.0,WNW,3.5,-,N/A,,Overcast,300,2011-11-05 03:32:00
9:53 PM,25.0,19.9,81,29.83,10.0,Calm,Calm,-,N/A,,Overcast,0,2011-11-05 03:53:00
10:49 PM,24.8,21.2,86,29.68,2.0,WNW,4.6,-,0.00,Snow,Light Snow,300,2011-11-05 04:49:00
10:53 PM,24.1,21.0,88,29.81,1.8,WNW,4.6,-,0.00,Snow,Light Snow,290,2011-11-05 04:53:00
11:03 PM,24.8,21.2,86,29.68,2.0,Calm,Calm,-,0.00,Snow,Light Snow,0,2011-11-05 05:03:00
11:35 PM,24.8,21.2,86,29.68,3.0,North,-9999.0,-,0.00,Snow,Light Snow,0,2011-11-05 05:35:00
11:53 PM,24.1,21.9,91,29.80,3.0,WSW,3.5,-,0.00,,Overcast,240,2011-11-05 05:53:00